Location: Aubrey
(33.1990°N, 85.1361°W)
Time: 10:39:19
(UTC+00:00)

X-37B - Pass Details

Date: 23 September 2021
Orbit: 385 x 389 km, 45.0° (Epoch: 17 October)

Event Time Altitude Azimuth Distance (km) Brightness Sun altitude
Exits shadow 10:09:06 24° 332° (NNW) 855 2.1 -17.5°
Maximum altitude 10:09:14 24° 336° (NNW) 853 2.2 -17.5°
Drops below altitude 10° 10:11:54 10° 33° (NNE) 1,413 4.0 -17.0°
Sets 10:14:14 0° 48° (NE) 2,270 5.5 -16.5°
